Tokyo, Japan

11:38 AM JST on June 19, 2018 (GMT +0900)
Tokyo (Haneda) International

Weather History for RJTT - June, 2018

Change the Weather History Date:

Thursday, June 14, 2018

  Actual Average Record
Temperature  
Mean Temperature 70 °F -  
Max Temperature 73 °F 78 °F 82 °F (2003)
Min Temperature 68 °F 68 °F 60 °F (2012)
Cooling Degree Days 6    
Growing Degree Days 20 (Base 50)    
Moisture  
Dew Point 62 °F    
Average Humidity 79    
Maximum Humidity 94    
Minimum Humidity 56    
Precipitation  
Precipitation 0.00 in - - ()
Sea Level Pressure  
Sea Level Pressure 29.81 in    
Wind  
Wind Speed 10 mph ()    
Max Wind Speed 20 mph    
Max Gust Speed -    
Visibility 6.2 miles    
Events      
Averages and records for this station are not official NWS values.
T = Trace of Precipitation, MM = Missing Value Source: Averaged Metar Reports

Daily Weather History Graph

Daily Weather History Graph

Search for Another Location

Airport or City:

Astronomy

Jun. 14, 2018 Rise Set
Actual Time 4:24 AM JST 6:57 PM JST
Civil Twilight 3:54 AM JST 7:27 PM JST
Nautical Twilight 3:17 AM JST 8:04 PM JST
Astronomical Twilight 2:36 AM JST 8:45 PM JST
Moon 4:43 AM JST (6/14) 7:18 PM JST (6/14)
Length of Visible Light 15h 32m
Length of Day
14h 32m
New Moon, 0% of the Moon is Illuminated
Jun 14
New Moon
Jun 20
First Quarter
Jun 28
Full
Jul 6
Last Quarter
Jul 13
New

Hourly Weather History & Observations

Time (JST) Temp. Dew Point Humidity Pressure Visibility Wind Dir Wind Speed Gust Speed Precip Events Conditions
12:00 AM 69.8 °F 53.6 °F 56% 29.74 in 6.2 mi WNW 6.9 mph - N/A   Mostly Cloudy
12:30 AM 69.8 °F 53.6 °F 56% 29.74 in 6.2 mi WNW 6.9 mph - N/A   Mostly Cloudy
1:00 AM 69.8 °F 53.6 °F 56% 29.74 in 6.2 mi NNW 9.2 mph - N/A   Mostly Cloudy
1:30 AM 69.8 °F 53.6 °F 56% 29.74 in 6.2 mi NNW 9.2 mph - N/A   Mostly Cloudy
2:00 AM 69.8 °F 53.6 °F 56% 29.74 in 6.2 mi NW 6.9 mph - N/A   Mostly Cloudy
2:30 AM 69.8 °F 55.4 °F 60% 29.74 in 6.2 mi NNW 8.1 mph - N/A   Scattered Clouds
3:00 AM 68.0 °F 57.2 °F 68% 29.77 in 6.2 mi North 11.5 mph - N/A   Mostly Cloudy
3:30 AM 68.0 °F 57.2 °F 68% 29.77 in 6.2 mi North 10.4 mph - N/A   Mostly Cloudy
4:00 AM 68.0 °F 57.2 °F 68% 29.77 in 6.2 mi North 11.5 mph - N/A   Mostly Cloudy
4:30 AM 68.0 °F 57.2 °F 68% 29.77 in 6.2 mi North 10.4 mph - N/A   Mostly Cloudy
5:00 AM 68.0 °F 57.2 °F 68% 29.80 in 6.2 mi North 10.4 mph - N/A   Mostly Cloudy
5:30 AM 68.0 °F 59.0 °F 73% 29.80 in 6.2 mi North 10.4 mph - N/A   Mostly Cloudy
6:00 AM 68.0 °F 59.0 °F 73% 29.80 in 6.2 mi North 10.4 mph - N/A   Mostly Cloudy
6:30 AM 68.0 °F 59.0 °F 73% 29.80 in 6.2 mi NNE 9.2 mph - N/A   Mostly Cloudy
7:00 AM 68.0 °F 60.8 °F 78% 29.80 in 6.2 mi NNE 9.2 mph - N/A   Mostly Cloudy
7:30 AM 68.0 °F 60.8 °F 78% 29.83 in 6.2 mi NNE 9.2 mph - N/A   Mostly Cloudy
8:00 AM 68.0 °F 62.6 °F 83% 29.83 in 6.2 mi ENE 6.9 mph - N/A   Mostly Cloudy
8:30 AM 68.0 °F 64.4 °F 88% 29.83 in 6.2 mi ENE 10.4 mph - N/A   Mostly Cloudy
9:00 AM 68.0 °F 64.4 °F 88% 29.83 in 6.2 mi ENE 10.4 mph - N/A   Mostly Cloudy
9:30 AM 69.8 °F 64.4 °F 83% 29.83 in 6.2 mi East 10.4 mph - N/A   Mostly Cloudy
10:00 AM 69.8 °F 64.4 °F 83% 29.83 in 6.2 mi East 10.4 mph - N/A   Mostly Cloudy
10:30 AM 71.6 °F 64.4 °F 78% 29.83 in 6.2 mi East 10.4 mph - N/A   Mostly Cloudy
11:00 AM 71.6 °F 64.4 °F 78% 29.83 in 6.2 mi East 11.5 mph - N/A   Mostly Cloudy
11:30 AM 71.6 °F 64.4 °F 78% 29.83 in 6.2 mi East 11.5 mph - N/A   Mostly Cloudy
12:00 PM 71.6 °F 64.4 °F 78% 29.80 in 6.2 mi East 11.5 mph - N/A   Mostly Cloudy
12:30 PM 73.4 °F 66.2 °F 78% 29.80 in 6.2 mi East 11.5 mph - N/A   Partly Cloudy
1:00 PM 73.4 °F 66.2 °F 78% 29.80 in 6.2 mi ENE 15.0 mph - N/A   Mostly Cloudy
1:30 PM 71.6 °F 66.2 °F 83% 29.80 in 6.2 mi East 16.1 mph - N/A   Mostly Cloudy
2:00 PM 73.4 °F 66.2 °F 78% 29.80 in 6.2 mi ESE 16.1 mph - N/A   Mostly Cloudy
2:30 PM 71.6 °F 66.2 °F 83% 29.80 in 6.2 mi East 17.3 mph - N/A   Mostly Cloudy
3:00 PM 71.6 °F 66.2 °F 83% 29.80 in 6.2 mi East 16.1 mph - N/A   Mostly Cloudy
3:30 PM 71.6 °F 66.2 °F 83% 29.80 in 6.2 mi East 16.1 mph - N/A   Mostly Cloudy
4:00 PM 69.8 °F 64.4 °F 83% 29.80 in 6.2 mi East 18.4 mph - N/A   Scattered Clouds
4:30 PM 69.8 °F 64.4 °F 83% 29.80 in 6.2 mi ESE 19.6 mph - N/A   Scattered Clouds
5:00 PM 69.8 °F 64.4 °F 83% 29.80 in 6.2 mi East 18.4 mph - N/A   Scattered Clouds
5:30 PM 69.8 °F 64.4 °F 83% 29.80 in 6.2 mi East 18.4 mph - N/A   Mostly Cloudy
6:00 PM 68.0 °F 64.4 °F 88% 29.83 in 6.2 mi East 18.4 mph - N/A   Mostly Cloudy
6:30 PM 68.0 °F 64.4 °F 88% 29.83 in 6.2 mi ESE 17.3 mph - N/A   Mostly Cloudy
7:00 PM 68.0 °F 64.4 °F 88% 29.83 in 6.2 mi ESE 15.0 mph - N/A   Mostly Cloudy
7:30 PM 68.0 °F 64.4 °F 88% 29.83 in 6.2 mi ESE 16.1 mph - N/A   Mostly Cloudy
8:00 PM 68.0 °F 64.4 °F 88% 29.86 in 6.2 mi ESE 16.1 mph - N/A   Mostly Cloudy
8:30 PM 68.0 °F 64.4 °F 88% 29.86 in 6.2 mi ESE 13.8 mph - N/A   Mostly Cloudy
9:00 PM 68.0 °F 64.4 °F 88% 29.86 in 6.2 mi East 12.7 mph - N/A   Mostly Cloudy
9:30 PM 68.0 °F 66.2 °F 94% 29.86 in 6.2 mi East 12.7 mph - N/A   Mostly Cloudy
10:00 PM 68.0 °F 66.2 °F 94% 29.83 in 6.2 mi East 12.7 mph - N/A   Mostly Cloudy
10:30 PM 68.0 °F 66.2 °F 94% 29.83 in 6.2 mi East 11.5 mph - N/A   Mostly Cloudy
11:00 PM 68.0 °F 66.2 °F 94% 29.83 in 6.2 mi ENE 9.2 mph - N/A   Mostly Cloudy
11:30 PM 68.0 °F 66.2 °F 94% 29.83 in 6.2 mi East 10.4 mph - N/A   Mostly Cloudy